GFSSGP_500_spd_003.txt.gz
Wind_Speed
25 26 23 18 19 17 20 10 12 8 11 14 13 16 18 15 19 18 19 19 18 15 13 14 15 17 15 15 14 13 11 10 7 6 6 5 6 5 6 5 4 3 2 3 4 4 1 2 3
26 22 15 15 15 14 13 14 6 10 11 15 14 19 18 14 25 17 15 15 15 13 13 15 15 14 14 13 13 13 11 8 7 6 6 5 5 4 5 5 5 5 3 1 0 0 0 2 4
19 16 14 15 10 8 13 9 2 8 11 16 17 15 18 16 20 16 16 14 15 13 12 13 13 12 11 10 9 7 6 5 4 3 3 3 3 4 5 7 7 7 4 2 3 3 3 3 4
22 13 14 10 18 2 9 10 9 8 10 12 16 12 17 15 15 14 15 13 14 13 12 11 11 10 9 7 7 7 7 7 6 6 4 4 5 7 6 7 7 7 9 6 3 1 3 4 4
22 18 20 5 14 15 10 7 8 8 7 9 11 10 13 13 14 12 12 12 12 11 11 10 9 9 8 7 7 7 6 7 8 9 9 6 6 6 5 7 8 9 9 9 7 3 3 4 5
19 22 27 10 11 22 14 7 6 8 10 9 12 13 12 13 13 10 11 12 11 11 11 10 9 8 7 7 7 7 8 9 10 9 7 6 7 6 5 5 6 8 10 11 9 7 5 4 6
16 24 31 10 7 17 10 6 6 10 11 10 13 13 11 14 13 11 11 12 13 12 10 10 10 10 10 10 10 10 10 11 11 10 9 8 8 9 11 11 10 10 10 12 11 9 6 7 6
14 17 8 18 12 14 4 6 10 13 13 14 13 15 15 14 14 13 12 11 10 10 9 10 11 11 10 8 6 5 5 7 9 9 10 11 13 12 11 12 12 8 11 10 9 9 6 6 6
24 17 11 17 15 11 9 6 9 10 11 12 10 11 12 14 13 14 14 14 12 12 12 11 9 7 6 7 5 5 4 5 7 10 13 15 15 14 8 10 13 12 11 11 11 12 10 8 8
26 17 14 14 5 10 4 3 10 9 6 9 9 8 10 10 11 13 14 15 16 16 16 17 15 14 10 13 13 12 12 11 10 11 12 12 12 15 13 11 14 14 14 15 14 11 15 14 14
15 13 17 4 2 7 2 5 7 5 3 6 6 7 8 9 9 10 12 14 15 13 11 11 10 11 10 9 11 11 10 10 10 12 12 12 13 12 15 15 16 16 15 14 16 14 13 16 14
5 14 13 16 17 15 10 6 6 3 1 4 5 7 5 6 7 6 8 8 10 8 7 7 7 7 8 9 10 11 8 10 11 13 14 14 17 18 16 16 15 14 15 16 16 17 17 16 16
11 11 12 20 20 8 9 3 2 1 2 4 5 5 4 3 3 4 4 4 6 5 4 4 5 6 9 9 8 8 10 11 11 13 16 16 15 16 16 15 16 16 16 16 15 14 15 16 16
4 11 13 14 14 13 6 2 1 1 4 6 7 5 3 3 2 3 4 3 3 4 5 3 7 8 8 9 9 9 12 14 14 15 17 18 19 19 17 18 19 17 18 16 15 17 16 17 17
9 11 15 9 5 1 6 4 2 3 2 6 9 8 5 5 6 5 5 4 3 5 6 5 6 7 9 9 9 11 13 15 15 16 16 15 16 16 18 19 19 17 17 16 17 17 18 18 17
16 16 12 5 13 18 10 10 4 4 6 5 7 9 9 7 6 4 5 4 4 4 3 5 6 7 6 7 8 11 12 14 17 19 19 19 17 16 16 17 17 18 17 18 18 18 17 18 19
19 10 10 8 7 11 16 11 5 6 7 7 2 6 8 9 7 5 5 2 2 2 3 5 5 5 6 7 9 11 12 13 15 17 17 18 16 14 13 14 16 16 19 20 21 21 22 21 20
22 20 19 17 10 11 14 10 9 4 11 12 5 3 6 6 5 4 5 5 4 5 5 5 5 7 8 9 10 10 12 13 15 17 18 18 15 13 12 13 14 16 19 20 22 24 24 21 22
8 7 8 14 17 14 19 19 14 9 11 13 9 9 1 3 3 2 4 4 4 4 5 7 10 9 10 11 11 12 13 15 16 18 18 19 18 16 14 13 15 17 20 20 21 22 24 26 26
15 18 16 12 17 21 15 17 22 27 13 2 7 10 11 4 4 4 2 3 2 4 5 6 6 8 9 11 13 14 14 17 20 22 23 22 21 19 17 17 17 18 19 20 22 23 24 26 27
22 20 15 19 17 24 13 20 24 13 20 13 12 16 16 12 6 4 3 1 1 3 5 7 8 9 11 12 14 15 14 15 17 20 22 24 25 24 23 22 21 22 22 23 23 24 26 27 30
27 19 25 13 29 22 22 24 22 16 22 15 18 7 9 9 10 7 4 3 4 5 7 8 9 10 11 12 13 14 15 15 17 19 20 22 23 25 25 26 26 27 28 28 28 28 28 29 31
26 28 29 27 18 22 22 24 29 27 29 26 11 12 16 13 14 13 9 7 8 9 10 11 12 14 15 17 18 19 19 20 21 23 25 26 27 27 28 29 31 31 32 32 32 32 33 34 35
23 29 27 33 29 30 35 30 29 31 21 21 25 19 17 11 15 18 15 13 12 13 14 15 16 17 18 20 20 22 22 23 24 24 25 28 28 27 28 29 30 31 32 33 34 34 35 37 38
29 26 24 25 28 31 15 27 28 31 27 24 20 20 17 16 19 15 21 21 20 21 21 22 25 25 24 23 21 20 22 24 27 28 28 29 30 30 29 31 32 33 34 35 35 36 38 39 40
25 28 28 31 25 6 9 17 23 26 26 29 27 23 25 32 32 21 14 14 15 19 22 24 22 23 23 22 22 22 24 25 27 28 29 31 32 31 31 32 32 33 35 35 36 38 40 42 41
18 27 28 19 10 16 18 20 16 23 21 20 20 18 20 22 23 19 18 16 18 19 20 21 26 23 23 22 22 23 24 27 28 29 31 32 31 31 32 32 33 34 36 37 37 39 41 42 43
23 28 28 30 28 24 16 18 23 21 20 22 22 23 23 23 24 23 20 15 16 18 19 19 23 24 23 24 24 25 25 25 27 29 30 30 31 32 33 33 34 36 36 37 39 41 42 42 44
29 34 25 26 31 20 16 24 23 24 25 23 27 25 20 21 20 28 28 20 19 18 17 20 23 25 26 26 27 28 29 26 26 27 29 29 29 30 32 33 35 36 38 40 42 43 44 45 45
24 37 25 23 25 23 23 24 24 22 19 26 30 29 25 20 20 25 30 30 27 21 19 23 25 28 30 28 28 30 30 28 28 29 32 32 31 32 34 36 37 40 42 44 45 45 44 44 44

GFSSGP_500_spd_006.txt.gz
Wind_Speed
24 21 21 22 22 13 6 19 19 16 21 17 12 18 21 19 23 17 19 19 19 17 16 17 17 15 14 15 13 13 11 8 8 7 7 9 9 9 11 12 11 8 6 4 6 6 5 4 3
18 14 17 20 20 19 13 21 22 17 19 20 19 21 20 18 23 18 15 17 18 17 16 17 14 15 15 13 12 10 11 7 8 6 8 10 11 12 12 14 14 12 9 7 8 8 6 4 4
17 18 9 17 20 12 11 17 15 16 14 18 17 20 20 17 20 16 17 15 18 16 14 16 14 14 14 13 11 11 11 10 10 11 11 10 12 12 14 13 13 12 12 9 7 7 6 3 3
14 12 14 21 20 9 8 9 13 14 14 15 18 13 14 17 20 18 15 16 17 15 13 13 13 14 13 12 12 13 11 12 14 13 12 13 13 13 12 13 12 13 12 12 10 7 5 4 0
9 8 14 17 22 18 18 13 9 8 8 11 13 10 14 13 18 16 15 14 15 15 14 13 13 13 12 12 11 11 12 14 15 14 12 11 10 10 10 10 11 10 10 9 9 7 5 5 4
11 9 14 16 15 20 19 14 8 7 8 7 11 9 10 11 14 12 13 14 14 15 14 13 13 12 12 13 13 13 13 14 12 11 10 10 9 9 7 6 6 8 8 7 6 5 5 4 4
14 10 12 11 23 21 15 14 7 7 9 7 10 13 9 11 11 13 13 14 14 14 14 14 14 13 12 13 12 11 11 11 11 10 11 9 10 9 6 7 8 5 6 6 5 5 5 5 5
9 6 16 14 20 19 16 15 13 11 8 9 11 13 10 11 12 14 14 15 14 14 14 13 12 11 10 9 8 8 8 8 9 11 11 10 11 11 9 5 7 8 9 8 8 6 5 5 5
14 14 18 16 13 15 15 13 9 8 7 8 10 10 13 9 10 11 11 11 11 12 11 11 10 10 11 6 5 6 7 7 8 9 10 11 11 13 4 7 8 8 9 8 7 7 8 7 7
12 8 14 14 8 20 16 6 5 6 8 8 8 9 10 13 12 13 14 16 15 17 17 15 13 12 12 11 9 8 9 9 9 9 8 8 9 10 9 8 8 10 10 10 9 8 8 10 10
14 11 8 8 9 15 18 7 8 7 4 6 6 7 8 9 12 14 17 18 17 16 13 13 14 11 9 9 10 9 9 10 11 11 11 10 11 12 9 8 9 9 9 9 11 10 10 8 11
6 7 9 11 18 17 11 16 9 5 7 8 6 6 8 9 10 10 13 12 11 10 9 11 12 9 8 8 9 11 11 11 12 11 11 11 10 11 12 11 11 12 12 12 11 10 12 12 11
8 4 7 14 20 16 11 13 9 8 8 7 5 6 7 7 8 8 8 10 8 7 8 10 9 9 9 8 9 11 11 11 11 11 12 12 12 10 9 11 11 11 12 11 11 11 11 12 12
6 9 9 13 6 7 8 2 8 8 8 6 3 6 7 7 7 8 9 10 8 7 8 8 9 10 9 9 9 10 10 11 11 11 11 11 11 11 12 12 12 11 11 12 11 11 11 10 11
20 11 12 10 7 14 8 4 5 7 8 6 4 5 8 10 10 9 8 9 8 6 7 7 8 7 7 8 8 8 8 9 11 13 12 12 11 12 11 13 13 13 13 14 13 12 12 12 11
19 22 8 12 11 10 5 7 2 1 5 7 2 4 7 9 10 8 6 6 7 6 5 5 5 6 5 6 5 6 9 11 13 14 13 12 10 10 11 11 12 14 15 15 14 13 14 14 14
26 22 13 7 1 5 2 9 8 7 4 4 2 3 6 6 7 8 6 4 3 3 3 3 5 5 5 5 6 7 8 10 12 13 14 14 14 12 13 13 14 14 15 16 17 16 15 17 17
29 19 14 2 9 9 6 7 8 9 14 14 6 6 1 3 4 5 6 5 4 4 5 5 5 6 6 5 6 6 7 8 10 11 13 14 13 13 13 12 12 14 16 17 18 18 19 19 19
22 15 4 8 12 12 11 11 9 9 16 9 7 6 3 2 1 2 4 5 5 4 5 5 5 5 5 6 7 7 6 8 9 11 12 11 12 12 12 13 13 14 16 17 18 19 21 20 20
26 21 13 5 12 20 19 14 10 10 9 3 2 4 3 3 3 2 3 4 5 4 3 3 3 4 4 5 6 7 9 10 12 13 14 13 13 13 12 13 14 15 17 18 20 22 23 24 21
26 23 21 5 16 23 22 21 17 13 7 4 9 10 12 7 8 7 7 6 5 4 1 2 4 5 5 6 7 8 10 12 14 15 16 17 17 17 18 18 18 19 20 21 23 23 24 26 26
31 21 11 14 24 30 21 22 25 19 13 7 10 20 20 6 9 12 10 7 5 4 4 5 8 8 9 10 11 12 13 14 15 15 17 18 19 21 22 23 23 23 24 25 26 27 26 26 28
29 22 15 20 22 22 25 27 19 21 18 11 16 11 11 15 13 12 12 11 9 9 9 11 12 13 13 14 16 18 18 19 19 18 19 20 20 22 23 24 25 26 28 29 30 31 30 28 29
34 26 27 24 25 28 26 23 26 27 27 19 20 17 14 12 9 11 13 12 13 13 15 17 18 18 19 19 19 22 24 22 20 21 23 26 26 26 28 28 27 28 29 30 31 32 32 31 32
42 32 34 38 36 34 25 29 27 30 31 23 23 18 16 15 11 15 17 16 17 21 20 21 23 23 24 22 21 20 22 22 21 24 26 27 27 27 27 27 26 27 29 31 32 34 33 34 36
38 35 35 39 48 45 34 39 15 14 17 19 26 19 15 13 7 10 11 14 12 17 21 23 23 22 20 19 17 19 19 19 23 26 28 29 29 29 28 28 28 27 29 31 35 37 35 36 38
37 42 34 33 35 23 26 22 15 20 17 18 21 19 15 15 14 13 9 12 15 16 23 22 22 22 21 20 21 19 20 19 21 25 28 29 29 29 27 26 27 29 31 33 34 35 37 38 39
30 24 30 36 31 30 29 23 23 15 18 16 17 17 18 23 18 20 10 7 8 12 17 22 24 23 24 23 25 25 24 24 23 24 27 31 30 28 27 27 28 31 34 37 37 39 40 41 40
27 31 28 28 28 36 26 23 21 19 22 17 17 16 22 25 19 15 11 10 11 12 15 22 24 24 26 28 28 30 27 27 27 23 27 29 28 27 25 27 29 33 37 37 38 39 41 41 44
24 32 34 35 38 32 33 26 27 23 24 17 14 18 23 28 23 14 11 17 18 23 21 22 24 27 30 34 32 32 29 30 29 27 26 28 29 30 30 31 33 36 39 41 41 42 43 44 42

GFSSGP_500_spd_009.txt.gz
Wind_Speed
20 20 19 26 23 22 15 12 15 18 12 10 14 19 21 19 20 17 16 19 18 18 17 18 17 15 14 13 13 15 14 14 13 14 16 16 16 15 16 17 15 12 10 9 10 10 9 7 6
17 19 20 25 24 21 15 13 15 17 21 17 15 18 19 18 21 18 17 18 20 20 18 18 16 14 14 15 14 15 15 16 17 16 17 16 14 15 16 17 16 17 16 13 10 8 7 6 7
17 20 28 25 18 20 16 17 16 14 16 19 16 15 19 18 19 17 16 17 19 19 18 16 16 14 15 16 17 17 18 18 18 16 16 15 15 16 16 15 15 16 15 14 12 10 7 5 4
17 19 19 25 20 18 17 13 16 13 11 15 16 12 13 16 20 19 15 15 17 16 14 15 14 14 16 17 17 17 17 17 15 14 13 11 11 12 12 11 11 12 11 9 9 9 7 4 1
14 16 24 19 18 19 16 17 15 9 7 5 12 11 15 14 18 18 16 13 16 16 14 15 14 14 13 14 15 15 15 14 12 12 11 12 12 10 8 7 8 9 9 9 9 8 8 6 1
7 12 23 21 20 20 18 17 14 12 9 5 8 11 10 7 13 13 14 14 12 15 15 16 16 16 14 15 17 17 16 15 14 14 13 13 11 10 9 9 9 8 8 8 7 7 6 6 5
7 8 16 25 23 23 23 19 16 14 12 9 9 12 8 5 6 12 12 11 10 11 11 11 12 13 14 14 14 13 12 12 10 10 10 10 10 9 7 6 8 5 4 4 5 5 5 5 5
8 12 14 21 23 20 19 20 20 14 9 8 9 10 8 5 7 9 10 11 10 11 12 13 13 12 10 10 9 8 8 7 8 11 10 10 11 11 6 7 7 7 5 3 5 5 5 6 7
15 13 16 18 21 25 15 17 16 12 11 7 6 5 8 6 6 7 9 9 9 10 11 13 14 13 11 11 11 10 9 9 8 10 10 10 8 8 7 6 7 8 5 4 5 8 7 7 9
12 11 14 16 16 20 13 17 14 6 11 9 3 4 6 6 5 6 8 10 9 11 11 13 13 13 12 10 10 9 9 7 8 9 8 6 6 7 7 7 8 8 7 7 7 8 9 8 9
13 11 9 16 17 13 11 17 13 7 9 9 5 5 6 7 9 9 13 15 14 14 15 13 10 11 11 11 9 9 8 7 7 9 9 8 8 8 8 9 10 11 10 10 10 11 9 10 9
11 5 7 15 14 13 15 13 10 7 7 8 7 5 7 8 9 10 12 12 11 11 12 12 11 8 8 10 10 10 9 8 8 8 8 8 8 6 6 7 9 10 9 9 9 8 9 9 8
9 4 7 16 11 12 12 11 10 10 9 7 8 6 6 7 8 8 9 9 9 12 12 10 8 8 9 9 9 8 6 8 8 8 9 9 8 7 8 7 8 10 10 10 10 11 10 9 9
8 2 6 12 13 14 11 11 11 11 12 9 6 4 6 8 10 11 10 9 10 11 11 10 10 9 8 8 7 6 6 7 8 8 9 9 9 8 7 9 8 10 12 12 11 10 10 9 10
15 2 11 13 12 11 10 9 5 7 12 10 5 5 7 9 11 12 11 9 9 10 8 9 9 8 7 6 4 5 7 8 9 10 9 8 9 9 8 8 9 9 11 12 11 10 12 13 13
12 13 8 12 12 8 7 8 3 5 8 11 7 3 5 7 8 10 11 9 9 8 7 6 6 6 5 3 2 5 6 8 9 10 8 7 7 8 8 8 9 10 11 12 12 13 14 15 16
13 12 14 11 5 7 6 11 6 7 10 6 7 4 1 4 5 6 7 8 7 6 6 6 6 6 5 3 3 3 3 4 6 8 8 9 10 10 10 10 9 10 11 13 13 14 15 16 18
14 18 17 10 4 4 6 5 7 3 6 9 2 3 4 2 3 4 5 7 7 7 7 8 7 6 4 3 3 2 1 2 4 6 7 8 8 8 10 10 11 12 13 14 15 16 16 16 18
19 17 17 5 4 4 7 6 4 11 6 3 2 4 3 4 4 3 5 5 6 5 5 5 5 5 3 2 1 1 2 4 5 5 6 6 6 7 7 9 10 13 14 15 17 19 20 19 19
26 21 16 13 5 6 5 9 5 7 10 3 4 3 2 4 6 7 6 5 6 7 6 3 3 2 2 2 3 5 6 7 8 9 10 11 11 11 12 13 12 13 14 16 18 20 22 23 22
29 23 20 8 11 15 14 15 5 7 11 6 12 8 9 7 10 10 7 6 6 7 7 6 4 3 4 7 9 10 10 11 12 12 14 15 15 15 16 16 17 18 18 19 20 20 22 24 23
33 27 20 21 20 17 20 20 10 6 12 5 8 8 6 6 5 11 10 9 10 10 9 8 7 7 8 11 14 14 14 15 17 18 18 19 20 20 21 21 21 21 21 22 23 23 24 25 26
34 27 26 24 20 19 23 26 15 16 15 9 6 5 10 13 9 10 13 14 15 15 13 12 12 12 14 16 18 20 20 20 20 22 21 22 22 23 24 24 24 23 22 23 23 24 26 28 28
34 35 34 28 26 30 26 25 22 17 8 14 12 11 12 10 14 13 12 14 16 19 17 14 16 17 20 22 23 24 28 24 24 25 24 22 23 24 25 25 25 25 26 27 26 26 28 31 31
44 41 39 38 36 34 30 31 20 6 9 11 10 12 8 10 9 13 16 13 15 19 25 25 22 23 22 23 22 20 20 20 23 25 24 23 24 25 26 27 28 28 27 27 26 27 29 32 32
47 47 45 38 32 31 34 38 13 11 12 9 9 14 8 4 10 10 19 28 24 20 22 20 15 17 19 18 16 18 18 19 21 23 24 24 26 27 28 28 28 27 25 26 27 30 32 34 34
52 56 45 44 39 37 35 36 30 18 17 18 9 14 9 9 9 14 11 11 17 20 17 17 17 17 18 18 18 20 21 23 24 23 24 25 27 29 30 31 28 28 28 28 29 33 36 36 36
57 55 49 50 45 45 45 44 44 35 22 19 14 14 12 12 9 13 9 7 5 7 12 15 18 21 22 23 23 23 27 28 27 25 26 26 27 32 29 29 28 28 29 29 31 34 36 37 39
58 56 57 49 45 41 35 33 31 35 24 18 16 19 15 11 8 12 15 2 3 1 7 15 19 23 24 26 28 28 30 31 32 30 29 27 28 32 29 29 28 29 31 33 35 36 38 40 41
59 53 52 48 40 36 33 33 31 26 21 17 21 16 12 12 12 12 14 12 7 8 11 11 16 18 21 26 29 30 32 33 33 33 32 30 31 30 30 30 30 30 32 35 37 39 41 43 43

GFSSGP_500_spd_012.txt.gz
Wind_Speed
20 22 21 23 21 19 12 10 13 15 15 14 14 18 23 20 19 17 15 19 16 17 19 15 18 19 18 18 18 19 19 19 18 18 19 17 18 19 18 18 17 12 12 11 9 10 10 8 9
21 22 23 21 23 19 15 13 13 11 15 13 17 18 21 22 22 20 17 17 19 20 21 19 19 19 18 18 17 17 19 18 17 16 17 17 18 18 19 17 14 12 11 11 10 10 10 8 8
20 19 21 20 21 22 18 14 14 14 15 16 14 12 19 20 20 21 19 17 18 19 19 19 18 17 16 17 16 16 16 16 15 15 16 16 17 16 13 12 10 10 10 11 12 10 9 7 7
24 17 17 18 18 19 18 15 13 13 12 14 14 12 13 15 21 19 18 17 17 17 17 16 16 16 15 15 15 15 15 14 13 13 13 13 12 11 10 10 10 10 10 10 10 10 8 4 4
23 21 13 12 18 20 18 15 14 11 9 6 12 13 14 12 17 18 17 14 15 16 15 14 13 13 12 12 13 13 13 12 12 13 14 13 11 10 10 9 9 8 7 8 10 9 8 6 3
23 22 17 23 23 21 18 16 17 15 9 5 9 13 11 6 8 11 12 12 10 12 12 12 12 13 12 13 14 13 12 13 13 14 14 12 11 9 7 7 8 6 5 6 7 7 7 5 3
15 20 21 22 22 21 23 21 17 16 13 8 2 12 9 5 3 6 7 8 8 8 9 10 12 12 12 13 11 9 11 13 13 12 11 11 11 8 9 8 7 5 3 4 5 5 6 3 1
16 23 21 25 20 20 20 19 17 16 14 12 10 7 11 5 3 5 6 6 5 7 10 11 10 10 10 10 10 9 11 13 14 13 12 10 12 11 9 8 8 6 4 3 4 6 6 8 6
14 19 20 21 19 18 18 15 16 15 15 13 10 9 10 7 4 7 8 7 8 10 12 12 11 11 12 12 12 11 13 12 11 10 8 9 8 9 8 8 8 8 7 6 6 7 8 10 10
16 13 13 15 14 14 17 15 13 12 13 12 10 8 6 5 4 6 6 7 7 9 11 13 13 12 11 10 9 10 10 11 10 10 9 9 8 9 7 7 8 8 9 10 10 10 9 9 10
14 13 8 10 14 15 17 15 12 12 12 12 8 7 5 6 5 6 7 7 10 11 13 11 12 12 11 10 10 9 9 9 9 9 10 8 8 8 9 11 12 12 12 12 11 10 11 9 8
12 8 9 11 15 17 16 15 14 13 10 10 7 6 6 6 7 9 10 12 12 13 13 11 11 11 12 11 10 9 9 8 8 9 8 8 7 8 9 11 12 12 12 11 10 10 10 8 8
11 8 8 11 14 17 17 16 14 14 9 10 8 6 7 8 9 11 10 12 14 14 13 10 9 10 10 9 8 8 7 8 7 8 8 8 7 7 7 8 10 11 11 11 11 11 10 10 11
12 8 11 12 14 18 16 16 14 13 11 9 8 7 7 9 10 12 13 14 14 13 12 11 11 10 9 8 7 7 7 8 8 8 8 9 6 7 7 8 9 10 11 11 11 11 12 12 12
11 10 12 14 17 18 15 14 13 11 11 11 7 7 8 9 9 10 11 11 11 11 11 10 10 8 7 6 4 5 7 7 9 9 8 7 8 7 5 7 7 8 9 10 10 11 11 11 12
14 18 12 9 14 17 15 13 12 11 9 9 7 5 5 7 7 6 7 9 10 9 9 9 7 7 6 3 3 3 5 6 8 9 9 9 9 8 7 6 5 7 8 9 10 12 12 14 15
16 15 19 12 11 13 14 14 9 6 6 5 6 4 2 3 5 7 7 7 8 8 7 7 7 7 5 4 3 2 2 3 5 7 7 7 7 6 6 7 7 7 8 9 11 12 13 15 17
10 16 19 12 5 9 10 10 6 3 2 4 2 1 2 1 4 4 6 8 8 7 7 7 7 6 5 4 4 2 0 3 5 5 5 4 5 7 8 8 9 10 10 11 13 14 15 16 18
18 15 18 15 17 13 7 3 3 6 4 4 2 3 4 3 2 4 6 6 5 7 8 8 7 6 5 3 2 1 2 4 5 6 7 8 8 9 10 10 11 12 13 13 14 15 15 16 19
18 21 24 17 13 11 9 6 2 2 2 8 1 1 3 2 3 6 5 5 6 7 8 9 9 9 7 5 5 4 5 6 7 9 10 11 12 13 13 13 14 15 16 16 16 16 15 15 17
21 18 26 18 15 13 12 12 4 3 2 3 6 6 3 5 7 10 9 7 9 10 10 9 9 9 8 7 8 7 8 10 11 13 14 15 17 16 16 17 18 19 18 18 18 18 19 19 18
26 14 23 24 21 19 16 14 10 6 6 2 3 5 4 2 3 4 11 12 12 12 12 11 11 11 11 10 10 12 14 15 17 19 20 19 21 21 20 20 20 19 20 20 20 21 20 20 19
25 18 23 26 27 27 25 24 13 14 12 5 2 7 10 8 6 8 9 16 17 15 14 15 16 16 15 15 16 17 21 23 25 24 22 22 24 25 24 23 21 20 19 19 20 20 19 20 22
29 33 31 34 36 38 25 24 16 17 7 8 5 7 8 12 13 16 14 13 18 18 17 19 20 21 17 18 21 22 24 27 23 20 20 22 25 26 25 23 21 21 21 20 20 21 22 23 24
41 41 44 43 44 43 30 29 12 11 10 4 4 9 10 11 13 12 10 12 17 17 18 19 22 26 24 22 20 18 19 19 20 19 20 21 24 25 24 23 22 23 22 21 22 22 24 26 27
46 42 45 48 45 42 38 34 15 10 9 6 7 10 13 7 12 8 7 11 21 25 23 23 22 11 12 14 15 15 16 16 17 18 19 24 26 28 26 23 23 25 24 23 23 24 25 28 30
53 50 46 49 48 46 45 42 32 19 16 15 13 15 13 13 18 10 10 11 14 17 18 14 10 11 14 17 17 18 19 19 21 23 23 22 24 27 27 25 25 25 26 27 26 26 27 30 33
59 53 52 55 54 52 50 44 34 24 19 22 20 17 19 16 18 11 5 10 10 12 6 6 10 15 19 20 22 21 22 25 26 28 27 25 25 25 25 27 28 28 27 29 28 27 29 32 34
66 65 60 58 57 54 51 47 37 30 30 27 20 21 19 18 15 8 10 7 7 9 4 3 5 10 15 17 19 22 29 26 28 30 30 31 28 27 27 28 28 28 27 29 30 28 30 33 35
63 67 61 62 60 58 54 47 39 28 25 22 27 28 22 18 15 10 10 13 9 7 4 7 13 15 17 22 23 26 28 31 28 31 31 31 30 31 31 31 29 29 29 31 31 30 32 36 38

GFSSGP_500_spd_015.txt.gz
Wind_Speed
15 17 17 12 17 14 11 14 16 12 11 11 14 14 20 19 16 16 13 18 17 19 18 19 21 22 23 22 21 17 17 17 19 18 18 19 19 18 17 13 11 11 11 12 12 12 12 11 11
17 15 15 16 21 18 15 14 10 12 12 13 14 15 18 18 18 17 13 14 19 18 18 19 20 19 17 16 16 16 17 16 17 16 17 17 18 14 13 11 11 13 12 12 10 10 11 11 10
17 15 14 18 20 17 18 17 17 14 15 14 14 15 18 19 18 18 16 16 18 18 17 16 16 15 13 14 14 13 13 14 15 16 15 15 12 11 11 11 10 11 12 12 11 9 8 9 8
17 14 13 16 16 18 17 17 16 15 13 13 14 13 13 15 20 20 17 16 15 16 15 14 13 12 12 13 12 13 13 13 13 13 11 11 10 10 10 10 9 9 11 12 11 9 5 6 6
21 18 14 14 16 15 15 16 13 13 10 9 12 13 14 12 16 16 15 13 13 13 13 13 12 12 12 12 12 13 13 13 12 12 11 10 9 10 10 10 8 8 8 10 9 8 6 3 3
21 19 19 17 17 18 17 15 17 14 10 7 11 15 12 9 9 11 12 11 9 10 11 11 10 11 12 12 12 12 13 14 14 12 11 10 9 10 10 8 6 5 7 7 6 7 6 5 3
20 20 18 22 21 18 17 17 15 17 15 8 8 13 11 6 2 6 9 9 7 6 7 8 11 13 12 11 12 14 14 13 11 10 13 14 13 11 9 7 6 5 5 5 6 6 5 5 4
18 17 19 17 18 18 17 17 16 15 16 13 7 9 13 7 3 5 7 7 5 6 9 11 12 12 11 13 15 16 16 15 12 12 12 14 12 12 12 11 9 8 5 6 6 7 7 6 4
17 15 16 14 14 15 15 14 15 14 16 13 12 10 12 10 6 7 9 8 8 10 11 11 12 14 13 14 15 14 14 12 11 11 11 10 9 10 9 9 8 9 8 7 7 9 9 9 8
18 13 12 11 11 14 15 13 11 11 15 13 12 12 9 10 6 6 9 10 9 10 13 14 14 13 12 13 12 13 11 11 11 10 9 9 9 9 9 10 10 10 11 10 10 8 7 8 8
14 11 11 11 11 16 15 15 10 10 13 13 10 12 7 10 6 6 7 8 10 12 12 13 14 14 12 10 10 10 9 9 9 9 8 8 8 9 10 11 12 12 13 13 12 11 10 10 9
14 10 14 14 12 15 16 16 13 10 12 13 10 7 9 9 10 9 10 12 12 13 13 13 13 12 12 9 7 8 8 8 9 8 8 7 8 8 10 11 11 11 11 13 13 12 12 11 10
12 10 13 14 15 15 16 17 14 12 10 13 10 5 9 12 11 10 10 11 13 13 12 12 12 11 10 9 8 7 8 8 8 8 7 7 6 6 7 9 10 10 12 12 11 12 11 12 12
12 11 15 15 18 16 16 18 17 14 10 10 11 7 8 12 14 12 12 12 13 12 11 11 10 9 8 7 7 6 7 8 7 7 6 6 6 5 7 8 10 10 11 11 11 10 11 12 12
16 14 16 16 18 17 17 17 18 16 11 9 9 10 8 11 13 14 14 14 14 13 11 10 10 8 6 4 4 5 5 7 7 8 8 8 6 6 7 7 6 7 9 10 10 11 11 12 12
17 18 18 18 18 16 14 16 15 14 12 9 6 7 6 7 11 12 12 12 12 11 10 9 8 7 4 3 3 4 4 6 8 9 8 8 7 8 7 6 6 8 8 9 10 11 12 13 14
19 19 19 18 18 16 14 12 11 11 9 8 7 6 4 4 5 7 9 10 10 9 9 8 7 7 5 4 3 2 1 3 7 7 6 8 8 9 10 10 9 8 9 9 9 9 10 11 13
16 16 19 17 15 15 15 12 9 8 6 3 6 6 5 2 2 2 5 6 8 9 9 10 9 8 7 5 4 3 2 1 2 4 6 7 8 8 9 9 9 11 11 12 12 12 12 14 15
17 20 19 18 17 17 15 14 12 10 9 1 2 4 5 4 3 2 1 4 7 9 9 10 10 9 7 6 5 4 4 4 4 5 6 7 8 8 9 10 11 13 14 15 15 14 14 16 17
23 23 25 23 22 18 18 16 13 10 7 6 0 0 3 4 2 2 3 4 7 10 10 10 9 9 9 8 7 6 6 6 7 8 9 10 11 11 13 13 14 16 16 16 16 15 15 16 17
25 22 30 24 25 21 18 17 13 12 10 7 3 1 2 4 6 7 7 8 8 10 11 11 11 11 11 11 10 9 9 10 11 12 13 15 15 15 16 17 17 17 17 17 15 15 15 16 16
21 19 30 30 28 22 21 17 15 12 11 9 6 5 3 6 8 7 11 12 13 13 13 13 13 14 14 13 12 13 14 14 16 18 21 21 18 16 16 18 18 18 18 17 16 15 15 16 16
25 23 24 29 31 30 28 26 21 19 17 13 8 3 1 6 8 8 10 12 15 17 17 16 16 17 16 16 16 17 18 20 21 20 18 17 16 16 17 18 18 19 18 18 17 15 14 15 15
37 32 29 32 36 41 33 31 24 17 13 16 12 8 6 7 8 10 14 17 15 19 20 20 20 19 19 19 19 21 21 18 17 17 17 17 17 17 18 19 21 19 18 17 16 16 15 17 17
47 43 40 38 42 44 32 32 15 13 13 16 17 13 12 13 12 9 9 13 16 18 22 24 23 21 19 22 24 18 14 15 16 18 17 18 19 21 20 20 20 20 19 18 17 18 20 20 19
53 48 48 44 42 36 33 33 15 13 17 19 17 18 21 15 12 11 13 12 11 19 23 23 23 20 21 13 12 13 15 16 16 17 19 21 22 24 24 21 19 20 20 20 19 19 23 23 22
58 57 46 45 43 40 40 37 29 18 22 21 16 15 15 13 11 14 17 18 9 10 15 22 22 13 11 11 12 16 17 20 21 21 25 28 26 22 23 24 25 25 24 22 23 23 25 26 25
62 55 54 54 53 53 50 44 37 22 23 23 20 20 16 15 17 20 17 14 9 9 9 9 8 7 3 5 8 10 13 15 22 19 27 28 29 26 23 23 23 26 26 25 23 24 26 29 28
68 68 64 59 57 54 53 50 36 28 21 19 22 24 20 18 20 19 15 13 9 8 4 4 3 2 4 6 10 15 20 23 25 28 27 28 30 30 28 24 24 27 26 25 26 29 31 30 29
72 70 66 64 60 59 57 51 43 33 29 22 23 25 24 20 22 20 17 14 14 9 5 4 2 5 6 10 15 18 21 23 25 22 34 37 27 36 32 29 33 29 27 28 31 30 31 33 33

GFSSGP_500_spd_021.txt.gz
Wind_Speed
8 10 12 7 15 12 12 11 8 11 10 7 12 12 13 12 9 8 10 11 12 13 14 15 15 16 17 17 16 18 18 16 15 13 11 9 9 8 9 9 8 7 7 7 10 10 10 11 10
10 10 10 11 12 6 2 9 8 8 5 5 7 12 13 10 10 9 8 8 11 15 16 15 15 14 15 16 17 16 15 14 13 12 10 9 8 8 9 8 9 8 8 8 9 9 9 9 8
10 12 8 18 12 12 8 6 6 8 8 7 8 8 7 9 9 8 8 9 12 13 13 13 13 14 13 14 12 11 11 11 12 11 9 7 6 6 7 8 7 7 8 8 8 8 7 7 6
12 19 20 14 7 7 8 6 6 7 8 9 9 8 6 6 8 10 9 10 10 10 10 10 10 9 10 11 10 10 10 11 11 9 6 5 5 4 6 7 8 7 7 7 5 5 6 5 5
16 23 12 2 3 6 7 7 7 4 5 7 7 7 8 6 8 9 9 9 8 7 8 8 8 8 10 10 10 10 9 9 7 5 4 4 5 4 4 5 6 7 8 7 4 4 3 4 4
28 28 2 3 3 4 4 6 7 8 6 6 5 7 8 7 7 7 7 8 6 6 6 7 8 9 10 10 9 9 9 8 8 6 6 6 5 5 3 3 4 6 7 6 5 3 2 2 2
24 14 3 2 3 5 7 7 7 10 9 7 7 8 11 9 5 4 5 6 5 4 4 6 9 10 9 10 11 11 11 11 11 10 9 9 7 5 4 4 4 5 5 5 4 3 2 1 2
22 17 3 3 3 3 6 8 8 10 11 11 8 10 11 10 7 5 5 6 5 4 5 8 8 7 10 11 12 12 12 12 12 12 12 11 9 8 8 8 7 5 5 5 4 4 3 1 1
23 21 8 7 3 7 6 7 8 9 11 12 11 8 10 12 10 8 8 7 6 8 8 8 8 11 12 12 12 12 10 10 10 10 11 11 11 10 11 11 9 8 7 6 5 5 6 6 5
13 24 10 16 5 14 6 7 8 8 9 10 10 9 11 14 13 10 9 10 10 10 9 10 12 13 13 12 11 10 9 9 9 10 11 11 10 11 12 13 13 12 12 12 12 12 12 11 11
8 1 9 10 14 13 9 8 8 8 7 6 10 11 11 12 13 10 8 9 10 12 13 14 14 13 12 10 9 8 8 8 9 9 10 11 11 11 10 11 12 12 12 13 13 14 12 12 12
10 12 4 5 9 7 9 10 9 10 8 9 7 11 14 14 14 13 12 12 12 12 12 12 12 10 10 9 9 7 7 7 7 8 8 9 10 9 9 8 9 10 11 11 12 12 11 11 11
12 12 13 9 10 11 14 10 9 8 7 9 10 9 11 13 14 14 14 13 13 12 12 11 9 8 7 7 8 7 6 5 6 6 6 6 9 8 8 8 9 9 9 9 9 9 9 8 9
11 12 12 12 12 12 13 11 8 8 7 9 9 9 10 12 14 14 14 14 13 12 11 10 8 7 6 6 7 7 6 6 5 5 6 6 7 6 5 6 6 6 7 6 6 8 8 9 9
19 17 12 13 14 14 13 10 8 9 7 7 9 10 12 12 13 15 15 15 14 12 10 9 8 7 6 4 5 5 5 5 4 5 5 4 5 3 2 2 2 2 3 4 5 6 8 8 9
22 17 9 16 17 17 11 8 8 10 9 9 9 11 12 13 12 12 11 12 12 11 10 9 8 6 4 2 2 2 4 5 6 6 6 6 5 3 3 2 2 3 5 6 8 8 9 10 11
27 17 12 19 20 19 13 10 11 11 11 10 10 10 11 11 12 12 11 11 10 9 9 8 7 6 4 3 4 3 2 4 5 4 5 4 3 2 3 4 6 8 8 9 11 11 13 13 13
22 19 16 19 25 25 18 12 19 11 10 10 10 11 10 9 9 10 10 10 9 9 8 8 8 7 7 6 6 5 3 2 1 1 1 2 2 3 3 5 8 10 11 13 13 14 15 15 15
20 18 18 19 26 24 21 18 16 13 11 11 11 10 10 10 9 9 9 10 10 10 11 10 9 9 9 8 7 7 5 4 4 4 5 7 7 7 9 11 12 12 13 15 15 16 16 16 17
26 24 21 17 26 21 20 18 19 17 14 14 13 11 10 9 9 9 9 11 12 12 11 11 11 11 10 9 9 9 8 8 7 8 8 9 11 13 14 15 15 15 14 14 15 15 16 18 18
32 27 23 22 25 27 22 20 22 23 19 17 16 14 12 12 10 9 9 10 11 12 12 12 11 12 11 11 10 10 10 11 12 12 13 14 16 18 19 17 15 15 15 14 15 16 16 17 18
35 31 26 25 37 25 27 21 28 25 21 19 17 15 13 12 13 13 12 12 12 13 12 11 12 12 11 11 12 12 13 14 15 16 18 19 20 17 15 14 15 16 16 16 17 16 16 18 18
36 29 30 27 29 23 28 26 22 23 22 23 17 15 14 15 16 16 16 16 14 14 14 14 13 14 14 13 14 14 16 17 19 21 22 20 17 16 14 14 14 16 18 19 18 17 18 19 19
37 32 32 31 32 38 30 33 25 28 23 24 21 20 20 19 19 19 17 16 16 16 15 15 16 17 16 15 16 17 19 22 24 24 19 16 16 15 16 16 16 18 20 20 20 20 20 20 20
44 38 38 36 39 39 29 40 26 26 27 23 19 20 25 22 23 22 20 16 13 13 19 19 18 20 20 18 18 20 21 23 22 18 17 17 18 17 17 19 20 24 25 24 23 23 22 21 22
49 47 44 43 35 33 31 37 36 30 25 17 19 18 21 30 26 21 14 14 11 7 8 11 17 19 19 20 20 20 22 19 16 17 19 19 17 16 19 23 24 25 27 29 29 27 25 21 22
47 54 42 36 32 32 31 32 34 31 31 34 33 24 25 32 28 22 14 12 11 10 11 13 16 18 21 20 21 20 17 17 18 15 13 14 15 14 19 18 27 30 32 28 27 31 27 26 25
52 42 48 48 45 41 36 33 30 35 40 31 31 28 27 26 28 24 18 15 13 12 12 12 17 17 18 22 19 16 13 12 12 12 13 11 16 16 18 28 30 33 31 32 35 31 32 31 26
51 57 47 45 47 45 39 35 32 30 29 26 32 26 22 21 25 20 19 19 16 16 13 11 16 18 13 14 14 13 14 13 14 10 11 16 17 20 20 27 28 28 37 48 45 43 39 33 34
42 49 50 50 50 49 44 39 30 30 30 23 22 19 20 21 22 27 24 24 21 17 16 13 15 17 16 17 15 15 15 14 14 14 17 23 21 22 25 28 30 33 42 29 36 28 24 33 32

GFSSGP_500_spd_024.txt.gz
Wind_Speed
8 8 6 8 16 20 12 9 5 5 3 4 8 7 6 16 11 10 9 15 13 14 15 13 16 13 13 13 13 14 15 14 11 10 9 7 6 6 7 8 9 9 7 8 8 8 8 9 10
6 7 4 6 20 12 3 2 2 6 1 3 7 6 3 5 8 9 8 12 14 15 15 15 15 14 14 13 13 14 13 12 11 9 7 7 7 7 8 9 10 8 7 6 7 7 8 7 7
10 8 23 6 25 10 4 3 4 2 3 1 1 2 2 2 5 8 11 13 14 15 14 13 13 13 12 12 11 12 10 9 9 7 6 5 7 8 8 8 8 7 5 5 5 6 5 4 4
15 7 24 30 18 16 11 5 2 1 2 2 2 3 3 4 7 11 11 11 13 12 11 11 11 10 10 10 10 10 8 8 7 4 2 4 6 6 8 8 8 7 5 4 4 3 3 2 2
9 6 26 11 7 15 4 7 7 4 2 2 3 5 4 6 8 10 11 10 10 10 9 9 8 8 8 9 10 9 8 7 4 1 2 4 3 5 6 7 6 7 6 6 5 3 1 2 2
12 20 21 4 20 3 4 2 3 9 5 5 4 4 6 9 7 8 8 9 8 8 6 6 7 8 7 9 10 10 8 7 4 4 3 4 4 4 5 5 5 5 4 3 3 4 2 1 2
25 27 19 15 22 10 10 6 10 10 10 3 3 4 7 9 8 7 6 6 5 5 4 4 6 6 8 9 11 11 10 9 9 9 9 8 7 6 4 4 4 4 3 3 3 1 1 1 1
23 19 14 6 14 13 9 8 11 10 10 7 5 5 6 7 8 6 4 4 2 2 5 6 5 6 9 10 11 11 11 11 11 12 10 8 9 9 8 5 6 6 5 3 3 3 2 1 4
10 9 18 15 8 15 12 10 10 8 6 4 10 8 5 8 8 8 8 6 5 5 7 6 6 9 11 11 11 11 11 10 10 11 8 11 4 12 13 11 11 11 8 8 6 6 6 6 6
7 17 19 13 13 24 7 14 9 6 6 10 10 10 7 7 11 8 7 6 6 7 8 7 10 12 11 10 10 10 10 10 12 12 9 10 13 12 14 13 13 13 11 10 12 12 11 11 13
13 2 12 11 15 8 15 18 10 8 7 7 6 7 6 6 8 8 7 7 7 8 9 10 12 11 11 9 8 9 10 10 11 11 11 11 11 11 11 12 13 10 9 12 13 3 10 12 15
22 8 6 12 10 17 11 18 8 7 8 8 7 8 8 8 10 10 10 9 9 12 12 12 12 10 9 8 8 8 8 8 9 10 10 9 10 10 10 11 11 10 8 9 8 8 10 11 11
14 14 5 7 14 12 7 17 12 9 10 8 10 8 9 11 11 11 10 11 11 13 13 13 11 10 9 8 6 5 6 6 7 8 8 7 8 9 9 10 9 8 7 8 10 11 11 10 9
7 13 9 12 8 11 7 20 14 10 12 8 10 8 10 11 11 10 13 13 13 14 13 12 12 10 9 7 6 5 4 4 5 7 8 6 6 7 6 5 6 5 5 6 6 7 7 9 9
18 15 19 18 8 15 16 23 18 10 10 8 8 7 12 11 11 13 14 15 14 13 12 11 10 8 7 6 4 4 4 3 3 5 6 4 3 3 3 3 4 4 4 5 6 7 8 8 10
18 17 16 10 14 14 8 17 21 10 7 8 6 6 12 11 12 12 12 12 12 11 11 10 9 7 5 4 3 3 4 4 5 5 5 4 3 2 3 2 4 5 6 7 8 8 8 10 11
21 20 16 14 13 16 9 24 24 16 5 5 7 6 9 11 12 13 13 13 12 11 10 8 7 6 3 1 1 1 2 3 5 4 3 3 2 3 3 5 7 7 8 10 11 11 14 13 15
20 19 18 19 18 19 18 25 26 18 7 8 8 9 9 10 11 12 11 11 11 10 8 7 6 5 4 2 2 1 2 3 3 1 0 2 2 4 6 8 9 11 12 13 14 15 15 14 15
18 18 14 18 28 18 20 23 17 5 7 11 10 10 10 10 11 10 9 9 9 8 7 7 6 6 6 4 4 4 4 4 3 3 4 6 6 7 8 10 12 13 14 14 15 14 15 15 16
26 25 24 22 25 18 19 22 24 10 13 14 14 12 11 10 9 9 8 8 9 8 8 8 8 9 7 7 6 6 6 7 7 7 8 8 10 12 14 16 16 16 16 15 15 15 14 15 17
33 32 24 23 15 22 17 18 16 26 22 19 17 15 15 14 13 12 10 10 8 8 10 10 9 9 8 8 7 7 8 8 8 10 11 13 15 16 17 16 15 14 15 17 18 19 19 18 18
32 30 27 22 22 31 24 25 24 23 24 15 18 17 16 15 14 13 12 12 13 12 11 11 11 11 10 9 10 9 9 10 12 13 15 17 19 18 15 14 14 15 15 16 18 20 22 21 21
29 31 30 26 26 30 35 31 25 29 32 28 17 18 17 17 16 15 15 16 16 16 15 14 14 13 12 12 12 11 11 13 15 17 19 19 18 15 13 14 15 16 18 18 20 22 23 24 24
33 32 33 31 29 38 30 32 24 32 27 25 31 17 19 18 16 17 19 20 20 20 18 17 17 17 15 15 14 15 16 15 18 21 21 18 12 12 12 14 15 17 20 23 25 24 24 27 27
40 38 36 38 38 38 26 35 30 29 32 28 35 31 16 20 22 17 18 20 20 20 20 19 19 19 19 18 18 18 17 18 19 20 14 12 12 11 9 12 18 18 22 26 30 31 26 24 28
42 41 47 41 39 34 32 38 41 31 29 37 11 7 19 21 20 24 17 18 15 13 12 13 15 21 20 19 19 20 20 19 19 16 14 12 9 8 9 12 15 22 28 25 30 29 32 33 33
36 46 41 39 34 35 32 32 28 38 28 42 16 30 29 24 26 28 20 18 16 11 13 13 13 14 15 20 22 20 20 19 15 13 8 9 8 10 11 14 19 20 20 24 25 21 31 34 34
39 33 44 46 46 45 38 34 36 30 36 30 30 25 20 18 27 32 22 16 17 12 11 13 12 13 16 16 21 23 20 18 13 7 9 7 8 10 12 18 18 21 24 22 20 26 28 32 28
41 44 46 40 50 49 44 41 28 29 33 31 38 44 25 34 36 35 26 20 20 18 13 12 12 15 15 15 15 18 18 14 9 7 9 10 13 15 13 15 19 22 24 19 23 26 31 29 30
38 40 46 52 49 51 46 44 26 33 29 37 37 35 31 38 28 29 29 23 20 17 16 13 13 14 15 16 15 15 15 11 11 11 11 18 19 13 15 16 21 25 27 22 27 27 31 34 32

GFSSGP_500_spd_027.txt.gz
Wind_Speed
10 12 4 12 15 13 11 6 8 7 6 5 6 9 16 13 15 17 14 18 17 16 13 13 12 12 11 10 10 10 11 13 12 11 11 10 10 8 8 6 9 9 10 9 9 9 10 11 12
8 11 12 15 10 6 9 7 11 3 4 3 10 11 10 15 13 13 15 18 17 15 14 14 13 12 12 10 10 11 12 12 13 12 11 10 8 9 8 8 8 9 9 8 7 7 9 9 8
4 3 15 13 8 20 12 9 11 4 3 8 6 10 9 11 7 13 16 16 15 15 14 13 12 11 11 10 10 11 11 12 10 9 8 8 8 9 9 8 8 8 7 6 5 5 6 6 5
13 11 5 17 23 27 17 16 10 9 6 4 5 6 13 10 14 15 14 14 14 13 13 12 11 11 10 10 11 11 10 9 7 5 5 6 8 9 8 9 8 7 6 6 4 3 3 3 2
5 24 12 21 24 26 12 7 9 4 8 4 3 7 10 12 16 14 13 11 13 12 10 10 11 10 10 12 12 10 9 6 4 4 5 6 7 7 8 7 7 7 6 6 5 3 2 1 2
9 12 13 16 17 24 14 9 10 4 6 3 6 4 7 13 14 12 11 10 10 9 8 9 8 9 11 12 12 11 8 7 6 6 6 6 6 7 6 6 5 5 5 6 5 5 5 4 3
9 2 9 7 11 16 17 19 10 9 5 2 7 2 5 10 11 11 9 7 6 5 7 9 9 10 11 13 12 11 10 10 10 10 9 8 7 7 7 6 6 6 7 7 7 7 6 4 3
16 4 20 14 8 9 13 22 17 19 7 6 5 6 4 4 9 8 6 3 4 5 8 9 10 11 13 13 11 10 12 13 12 12 11 10 8 7 7 8 6 7 8 8 6 5 6 5 6
8 3 13 20 17 10 21 21 19 19 11 7 2 8 7 2 3 3 5 3 3 7 10 10 11 13 13 12 12 11 12 12 11 13 13 8 12 9 9 14 13 15 16 11 10 12 12 9 8
12 21 16 12 3 8 10 18 14 15 12 10 9 7 7 5 4 5 4 5 6 10 11 13 13 14 12 12 12 10 12 11 10 13 12 13 11 9 12 15 15 15 13 14 14 14 11 12 9
17 13 9 7 4 12 16 21 13 12 16 7 5 6 5 4 4 4 7 7 9 11 12 14 14 13 12 12 12 11 11 11 10 11 12 11 10 9 12 13 16 13 13 14 13 8 12 9 11
7 7 11 6 10 17 16 22 15 14 12 11 8 7 6 2 6 8 8 8 10 12 14 14 12 12 11 11 10 10 9 9 9 8 8 10 11 9 9 12 12 12 11 11 10 8 9 12 11
7 7 11 11 11 11 20 21 17 21 16 9 8 8 6 4 6 5 6 8 11 14 14 13 12 12 11 9 9 9 8 7 7 7 7 6 9 9 10 10 9 10 9 7 7 7 9 9 10
9 5 14 5 6 15 18 22 20 19 17 10 9 7 9 7 6 8 8 10 13 14 13 14 13 10 9 9 9 8 8 8 5 6 6 5 7 7 6 6 7 7 7 7 6 7 6 8 10
21 20 10 8 7 16 20 20 12 25 16 9 8 8 9 9 7 8 13 14 17 17 15 13 13 11 9 8 7 8 7 6 7 6 5 3 3 4 4 5 6 6 7 8 7 8 8 8 9
25 26 22 14 18 18 21 14 19 25 15 11 6 7 4 10 10 9 12 14 13 14 15 13 10 9 8 8 7 7 6 7 7 5 3 4 3 4 4 4 5 6 8 10 10 11 11 12 11
27 22 20 17 18 15 16 17 15 23 20 15 7 4 4 7 10 11 12 14 13 12 12 10 7 6 6 7 6 5 6 6 6 5 4 3 2 3 4 5 6 7 9 10 11 12 13 14 13
22 19 18 11 15 16 21 18 14 19 28 19 10 3 5 7 9 9 9 10 11 11 10 8 8 5 4 4 4 4 4 4 4 3 0 2 4 5 6 8 10 11 13 13 14 13 13 14 14
23 24 17 10 20 24 22 16 15 11 14 10 9 4 5 6 8 10 10 10 9 8 7 7 7 6 4 4 4 4 5 5 3 1 2 3 5 6 9 12 14 14 15 15 15 16 17 17 16
27 24 19 17 27 24 20 19 18 16 18 17 9 6 6 7 8 9 9 9 9 7 7 7 7 6 6 6 5 5 6 5 4 3 4 6 8 10 12 14 14 14 14 14 15 16 18 20 21
27 25 22 25 31 24 27 19 14 17 16 19 9 5 7 10 10 11 11 11 10 9 9 7 7 7 7 7 7 7 7 6 6 5 5 8 11 13 14 12 11 12 13 13 15 17 20 22 23
27 24 23 30 21 29 22 20 24 21 14 12 12 6 7 9 10 9 9 9 9 9 8 9 9 10 8 9 9 9 9 8 6 8 9 10 12 13 11 9 9 10 12 13 16 18 20 21 23
18 31 30 33 26 33 24 35 33 26 29 20 18 18 9 9 11 9 10 11 10 11 12 12 12 12 12 11 12 11 13 12 10 10 12 14 12 10 8 8 9 9 11 13 17 21 24 22 21
25 31 38 37 31 35 29 32 25 35 25 26 21 27 21 12 10 10 8 12 14 15 17 17 18 17 16 16 16 16 16 16 14 12 12 11 5 7 6 4 9 12 13 17 22 20 23 26 26
35 36 41 45 46 46 35 36 25 23 22 26 26 24 23 16 9 14 13 10 17 18 17 17 20 20 18 16 17 19 19 18 16 13 10 6 4 5 3 4 9 11 15 19 21 25 21 25 28
31 42 45 52 52 45 40 45 30 17 17 23 27 27 24 24 22 12 9 8 11 15 16 14 16 18 23 23 22 22 20 20 17 13 6 2 2 1 1 5 10 11 14 17 21 18 21 26 30
32 38 37 45 45 50 46 42 26 22 26 25 30 35 27 41 43 18 11 11 14 17 16 15 12 12 14 17 22 22 21 20 15 9 3 1 2 4 3 8 11 13 15 18 17 18 23 28 31
37 32 33 45 49 53 44 46 31 22 28 32 36 36 31 26 42 23 11 11 13 20 20 16 10 12 11 12 14 17 21 19 12 5 4 3 1 6 6 8 9 11 16 17 14 21 27 28 33
38 40 43 37 46 49 47 50 33 33 28 28 34 27 32 30 27 30 17 25 24 23 24 14 10 12 11 9 9 12 15 13 9 5 4 6 4 7 7 8 10 14 17 21 21 23 26 29 33
41 41 42 47 44 50 52 46 34 30 23 28 26 29 31 32 28 20 22 28 20 22 18 14 12 12 13 11 9 7 6 6 7 6 7 5 8 4 6 9 10 20 24 25 27 27 30 30 30

GFSSGP_500_spd_030.txt.gz
Wind_Speed
9 9 8 10 15 12 10 7 10 11 9 17 14 17 14 14 15 15 13 18 19 15 14 14 13 12 10 9 8 7 7 8 11 12 13 12 11 10 8 9 10 10 9 10 11 11 11 11 13
5 11 12 12 12 14 7 10 10 10 10 9 11 15 15 15 14 14 14 18 18 16 15 15 13 11 9 8 7 8 8 9 11 12 12 10 10 8 8 8 8 8 8 9 8 8 8 8 8
7 7 12 16 20 13 9 15 14 8 5 7 10 6 9 14 14 17 17 16 17 16 14 13 11 9 9 8 8 8 9 9 11 10 9 9 8 8 8 8 7 7 7 7 6 5 5 7 6
13 3 14 9 18 15 14 16 11 8 10 10 9 8 7 12 18 17 15 16 15 14 12 11 11 10 10 9 9 10 8 8 8 8 8 7 9 9 8 7 7 8 8 6 4 2 2 3 3
12 7 10 7 16 18 17 15 12 12 8 8 8 10 12 12 18 17 15 14 14 12 10 10 11 11 10 10 9 9 7 7 8 7 7 8 8 7 7 7 7 8 8 7 6 5 4 3 2
7 4 7 11 12 13 15 17 7 11 6 6 7 11 10 11 17 15 14 12 9 10 9 10 10 11 11 10 10 9 8 9 8 8 9 9 7 8 8 8 7 8 6 6 6 7 9 7 8
5 4 11 7 20 5 15 19 21 14 11 2 4 9 8 7 11 14 12 9 7 8 10 10 11 12 12 12 11 11 11 11 10 11 11 10 11 11 10 10 11 8 7 10 10 10 9 6 10
14 4 7 8 8 8 15 15 13 12 9 2 1 6 9 5 5 8 8 5 5 9 11 12 13 14 13 12 12 12 13 13 13 12 13 12 12 11 10 10 11 9 10 10 10 13 11 11 13
7 9 10 7 4 12 10 17 16 12 9 5 4 6 7 5 4 3 4 3 6 10 12 13 14 14 12 12 12 12 12 13 14 12 11 15 16 15 14 15 15 15 13 15 14 15 14 16 17
4 5 15 3 9 11 17 17 16 13 11 4 5 1 6 7 6 3 3 3 8 12 14 14 16 14 13 12 12 12 12 12 12 13 14 13 14 14 14 14 14 14 13 13 14 15 12 15 15
17 14 7 5 10 12 12 17 16 22 14 7 5 1 3 6 6 4 5 6 10 14 17 15 15 13 13 13 12 12 12 11 10 12 12 12 12 12 10 13 13 12 12 13 12 10 11 12 12
25 14 8 6 9 11 13 18 16 16 8 8 9 5 3 5 7 7 9 11 13 16 18 15 14 13 13 12 11 11 11 11 9 9 10 11 11 11 10 13 9 9 12 11 11 11 12 12 12
14 20 16 8 10 17 21 21 19 9 17 9 9 4 2 7 8 9 10 11 15 18 17 16 13 11 11 11 10 10 10 11 10 8 9 9 11 10 10 8 7 11 11 11 10 10 10 11 11
20 18 18 12 9 12 18 9 25 17 15 14 14 7 2 6 9 10 12 14 16 17 16 16 13 10 10 10 10 10 10 10 9 9 8 9 8 7 6 7 7 7 8 8 9 10 11 11 12
23 18 11 19 9 16 17 14 20 17 12 15 18 12 7 6 10 10 14 18 18 17 16 14 12 9 9 8 10 11 9 8 9 7 7 6 5 5 6 5 6 7 9 9 11 12 12 13 13
21 16 19 13 9 19 15 18 18 15 7 14 17 15 5 8 9 11 14 17 17 17 15 13 10 8 9 8 10 11 11 9 7 7 7 5 5 6 5 6 7 9 10 10 11 11 13 14 13
25 16 17 14 12 13 12 21 17 16 16 9 11 15 5 6 11 12 16 16 14 14 15 13 11 9 9 11 10 10 9 10 8 7 6 6 5 5 6 8 8 9 10 11 11 12 14 14 13
19 16 19 16 12 14 15 17 18 11 15 17 0 7 1 4 8 12 14 15 16 16 14 13 11 9 9 8 9 9 8 7 7 5 4 5 4 5 8 9 9 12 12 12 12 13 14 15 16
22 20 21 20 22 17 18 24 13 15 14 6 3 4 3 6 7 10 12 14 15 13 12 9 8 8 7 8 7 6 8 6 5 2 2 1 4 5 7 11 11 11 10 10 11 11 12 13 14
28 24 23 22 17 24 27 19 18 13 7 2 1 5 7 6 5 8 10 11 12 13 11 10 7 6 5 3 4 5 6 5 5 4 2 2 4 6 8 10 10 9 9 9 10 12 14 16 17
28 28 26 24 26 22 20 26 24 16 11 4 1 3 9 7 8 9 10 13 12 11 11 10 10 7 5 5 6 6 7 7 7 7 6 6 7 8 9 7 7 7 9 10 12 15 18 21 23
26 24 28 34 30 28 32 34 26 21 15 6 8 2 9 9 8 5 6 8 9 10 8 8 8 8 7 7 7 8 8 8 8 8 7 8 10 11 6 5 8 8 8 11 12 15 18 20 21
19 31 33 35 33 32 35 34 28 29 19 12 8 8 7 8 8 5 4 3 5 5 7 7 6 6 8 10 10 10 10 10 11 10 8 10 13 10 7 5 6 5 10 12 16 17 18 17 21
25 32 38 39 36 45 38 37 26 33 20 13 9 10 12 8 10 10 10 9 7 7 9 12 13 13 12 11 13 14 14 13 13 13 11 12 10 7 6 6 3 6 9 12 15 14 13 18 24
29 36 43 47 53 50 40 41 25 24 21 13 11 7 11 11 11 13 10 11 9 9 13 17 19 18 17 15 15 17 17 16 15 14 13 12 8 6 5 4 4 7 10 10 15 14 13 20 25
31 38 45 53 53 49 46 50 32 20 17 17 9 11 10 7 12 16 15 15 14 15 14 17 18 17 17 19 18 20 19 19 17 16 13 12 7 6 6 2 6 5 6 12 13 12 15 19 23
30 40 38 46 49 49 49 52 38 30 22 18 13 16 16 8 10 19 25 21 12 11 10 12 16 13 12 14 17 21 23 21 17 15 13 12 8 8 5 3 1 4 7 10 11 14 17 22 25
38 31 38 45 49 56 49 50 41 35 25 18 19 21 23 17 14 22 16 24 9 3 7 12 14 14 12 11 14 16 18 18 17 14 15 11 12 5 3 4 4 4 5 7 11 15 19 22 22
41 42 42 41 40 45 45 42 42 35 30 23 25 24 24 22 17 18 19 28 21 9 10 13 13 12 10 11 11 9 13 14 16 16 16 14 10 4 5 4 3 3 4 7 9 14 18 23 24
46 46 43 45 44 42 37 31 31 38 37 34 23 21 20 18 21 18 18 15 21 12 10 13 15 14 12 13 10 9 9 9 18 20 17 13 7 6 5 4 4 3 5 12 12 18 24 27 28

GFSSGP_500_spd_033.txt.gz
Wind_Speed
7 6 6 12 9 9 10 10 11 13 18 21 17 14 14 16 12 11 10 18 19 14 13 11 10 9 8 9 9 10 10 7 8 10 12 13 12 11 11 12 11 11 10 10 9 8 10 10 9
10 8 7 10 13 13 12 9 13 15 14 9 14 15 15 14 14 14 11 16 15 16 13 12 9 8 8 9 10 8 7 7 9 11 12 13 10 10 10 10 10 9 9 8 8 6 6 7 6
5 11 11 16 12 16 14 12 11 12 12 7 8 9 9 12 16 15 15 15 14 14 12 11 9 8 9 8 7 5 6 8 10 11 13 12 11 10 10 9 9 9 8 7 7 5 5 6 6
5 6 10 13 17 16 11 16 12 12 12 7 9 11 7 12 18 18 14 14 12 10 8 8 7 8 7 7 6 6 7 8 8 11 11 11 12 11 9 9 9 9 9 8 6 5 4 4 5
10 8 15 22 18 18 18 16 14 9 8 9 5 13 13 14 16 18 15 13 12 10 8 7 7 7 8 8 7 6 8 7 8 10 11 12 11 9 7 7 9 10 10 10 8 7 7 5 4
13 5 16 17 18 17 21 13 9 8 9 7 10 14 13 13 14 15 14 11 7 10 10 8 8 9 10 9 8 7 8 8 9 11 12 11 10 9 7 7 9 12 12 11 9 10 9 7 6
13 10 4 13 16 16 20 15 13 13 9 7 5 13 13 8 9 13 11 8 7 8 11 10 11 11 11 10 10 10 10 10 12 13 14 13 13 11 11 11 13 13 14 13 13 16 12 12 11
8 9 3 8 19 15 20 16 16 14 11 7 5 7 12 11 8 7 7 5 6 10 11 12 13 12 12 12 13 12 13 13 14 13 13 14 15 13 13 15 15 18 18 18 19 20 17 17 14
2 4 8 10 13 10 13 21 23 13 11 7 5 6 6 9 9 6 4 4 7 11 12 13 14 13 12 12 12 13 14 14 13 14 15 17 16 15 16 16 18 19 18 17 16 19 17 16 15
4 8 9 6 9 12 13 19 22 16 9 6 2 5 9 8 9 8 6 6 11 13 13 13 14 14 14 13 13 13 12 12 14 13 15 16 15 14 14 15 15 17 15 15 15 16 16 14 13
8 11 10 7 13 14 15 16 21 20 15 13 4 1 6 9 10 9 7 9 14 14 16 16 14 14 14 13 13 13 13 13 12 13 13 13 15 12 12 14 14 14 14 14 13 14 14 12 12
17 13 8 8 11 13 18 18 16 14 14 11 7 3 2 4 8 9 9 13 13 16 18 17 14 15 14 13 13 13 12 12 12 12 12 12 11 12 12 12 12 13 12 13 12 13 13 11 10
20 15 14 7 9 3 15 15 16 14 16 16 10 5 2 1 4 8 10 14 17 19 18 17 15 14 12 11 12 13 12 11 11 11 11 12 10 11 10 9 11 11 11 11 11 12 13 12 11
16 20 19 15 15 3 13 17 17 13 14 17 15 6 2 4 6 9 11 15 20 19 18 16 15 13 12 11 11 13 13 10 9 9 10 9 9 8 7 8 10 10 11 11 11 11 10 11 10
22 21 16 9 7 3 8 15 20 12 12 15 15 13 3 7 7 9 13 17 19 19 18 15 14 13 12 12 11 11 13 11 10 9 8 8 7 7 4 7 7 7 9 10 12 11 11 10 9
23 24 12 12 13 13 8 6 14 14 15 17 11 9 5 8 11 11 14 17 18 17 16 14 13 12 12 12 11 9 13 12 11 10 8 8 8 6 5 7 7 8 8 10 10 11 13 11 10
29 18 16 17 18 11 13 3 9 11 11 17 10 5 5 5 8 12 14 16 18 16 15 12 11 12 12 11 11 8 9 10 10 10 9 7 6 5 5 6 8 11 11 10 11 11 10 10 10
23 19 16 20 19 15 10 6 6 7 10 12 5 6 8 8 9 14 15 16 15 15 12 11 11 11 10 9 8 9 7 8 8 7 6 4 4 2 2 5 9 11 11 9 9 11 13 14 15
21 22 18 24 23 15 14 14 0 8 6 3 5 5 5 9 8 13 14 15 15 13 12 10 9 9 10 9 9 9 10 10 7 5 5 3 2 1 5 7 9 9 8 8 10 11 14 17 20
26 22 20 25 25 22 20 13 8 8 7 6 3 2 4 7 10 11 14 12 12 14 12 10 10 9 9 9 8 9 9 8 7 6 4 3 3 5 8 10 9 9 8 10 12 14 18 20 20
26 26 21 26 30 31 23 22 12 9 11 9 11 5 4 5 8 10 11 13 15 12 10 10 10 10 9 9 10 9 8 8 7 6 5 5 5 8 10 11 9 9 9 10 11 14 16 16 18
28 22 29 33 35 36 30 27 21 13 13 13 18 14 7 4 7 7 8 8 11 14 14 11 9 8 8 9 9 9 8 8 8 7 7 6 8 11 12 10 10 8 6 9 11 13 12 10 17
20 30 33 37 41 40 38 37 30 23 15 14 13 14 12 6 6 11 12 10 11 11 13 13 11 7 6 7 7 8 9 8 8 8 9 9 12 14 13 11 8 4 7 8 10 11 9 10 14
21 32 36 42 43 50 37 38 26 19 15 20 8 8 8 6 4 9 14 15 14 14 13 12 11 10 10 9 8 10 11 11 10 10 11 13 15 14 12 9 3 4 7 9 10 10 10 12 17
29 39 43 50 54 48 37 42 22 20 18 19 14 11 10 10 7 9 8 13 14 13 13 12 10 11 13 14 13 13 13 13 13 12 13 15 15 12 12 5 3 5 7 5 8 10 11 14 17
27 37 46 49 52 44 41 40 19 22 22 25 16 17 13 10 9 12 9 9 14 15 16 15 15 12 12 15 17 16 15 14 14 15 16 17 16 15 11 6 5 5 6 8 6 8 13 16 19
30 39 34 45 48 49 46 35 33 30 29 26 22 19 15 11 9 7 11 10 17 15 14 7 8 7 8 11 17 19 20 19 18 19 18 18 16 14 11 8 7 5 6 7 6 8 11 14 18
40 31 38 46 49 50 44 34 26 28 30 28 25 27 21 17 12 8 11 14 14 19 14 7 7 8 10 10 10 13 17 19 20 20 21 19 17 15 13 10 9 7 6 4 6 5 8 12 16
42 44 42 42 46 46 42 29 27 27 29 32 24 23 21 20 14 12 9 13 14 20 13 10 9 9 10 9 9 10 12 14 17 20 22 18 18 18 13 13 10 9 7 5 6 7 10 14 18
48 47 48 49 41 37 36 37 29 30 30 32 33 32 29 21 17 18 14 16 19 26 19 17 13 11 12 12 10 11 12 12 14 20 22 20 21 20 14 15 13 12 11 9 7 9 12 17 20

GFSSGP_500_spd_036.txt.gz
Wind_Speed
4 6 9 11 12 13 11 11 13 21 19 19 17 16 15 13 15 9 12 19 16 15 13 10 9 8 7 8 10 13 14 13 12 11 10 11 12 13 15 15 14 11 11 10 11 12 13 12 11
7 7 6 13 14 14 13 13 14 15 13 15 14 15 15 14 16 17 16 15 15 15 11 10 8 7 8 9 13 14 14 12 10 10 12 13 13 14 15 15 14 12 10 9 8 8 7 8 6
3 8 7 10 14 13 14 13 13 14 13 13 13 12 10 14 15 16 17 15 14 13 11 9 7 9 9 11 14 13 12 9 10 12 14 14 14 14 15 15 14 12 10 9 8 7 6 5 5
6 5 9 11 9 9 14 15 14 14 11 11 11 9 9 12 16 16 15 14 11 11 11 8 8 8 9 12 13 11 9 9 12 14 14 13 13 13 15 15 14 13 11 9 7 5 4 4 6
10 13 15 12 11 13 16 13 12 12 10 10 7 11 12 11 13 15 14 11 10 9 9 8 8 8 10 12 10 8 9 11 13 14 14 14 13 13 13 14 13 12 11 11 10 9 7 7 9
17 26 15 13 14 9 8 10 10 11 12 9 10 13 13 12 11 12 11 9 5 7 9 8 8 10 11 11 10 9 11 13 15 14 13 13 13 13 13 14 14 13 14 13 10 10 10 10 12
9 20 17 9 17 10 12 14 14 11 14 11 10 13 15 11 8 10 8 5 4 6 9 9 11 11 12 11 11 13 14 16 15 15 15 16 14 14 15 15 17 17 19 17 15 17 17 14 13
9 15 16 13 11 10 6 15 16 13 10 10 10 10 11 15 8 6 4 2 3 7 8 11 12 13 13 13 14 15 16 16 15 15 15 16 17 17 19 21 21 21 22 20 19 18 19 17 14
6 14 15 14 15 12 8 11 16 14 11 8 8 8 7 8 10 6 4 3 5 8 10 12 13 14 13 14 15 16 18 17 17 17 19 20 20 20 20 21 20 21 20 19 17 15 15 14 13
6 15 15 14 16 17 10 14 15 14 13 8 4 6 9 8 7 9 7 5 9 11 12 13 13 14 14 14 14 15 15 15 16 16 18 19 18 20 18 20 18 18 17 17 16 15 14 14 14
9 11 11 9 11 18 15 13 12 16 16 13 6 2 6 9 7 10 7 6 11 13 15 15 14 14 15 14 14 15 16 17 15 15 17 16 15 17 18 18 18 17 16 15 14 13 13 13 14
11 12 10 9 15 18 17 14 10 18 21 17 11 4 1 4 6 10 9 8 11 15 16 16 15 15 15 14 14 15 15 16 15 14 15 14 15 15 16 16 15 15 14 13 12 11 10 11 12
17 17 14 10 15 16 14 18 14 17 20 18 15 9 0 7 5 9 10 10 13 17 17 16 17 15 14 14 14 15 15 15 14 13 13 12 12 13 14 15 13 13 12 10 10 9 8 8 7
22 26 21 14 12 16 15 15 15 15 18 18 12 9 5 7 8 10 11 12 17 18 18 17 16 15 15 13 13 14 13 14 14 13 11 10 9 11 14 13 11 11 10 10 9 9 9 8 7
22 26 20 15 3 5 12 12 15 10 19 17 17 9 6 8 11 12 15 16 20 19 18 17 15 15 15 15 13 12 11 12 12 11 9 8 9 9 12 11 9 8 9 9 9 8 8 9 9
25 24 16 15 7 6 10 10 11 12 13 15 16 6 6 9 13 11 14 19 19 17 17 15 15 15 15 15 14 13 11 10 10 9 8 8 8 9 9 7 6 8 8 7 7 6 7 10 10
27 20 16 16 11 9 11 11 12 8 8 12 13 4 3 9 9 11 14 18 19 18 16 14 14 15 16 15 14 13 11 10 10 11 9 9 7 7 5 3 5 7 7 7 6 9 11 12 12
22 20 22 16 11 13 7 17 13 12 7 11 6 5 2 7 9 14 16 17 18 17 15 12 12 15 16 14 13 13 13 11 10 9 8 7 5 3 2 5 8 9 9 10 10 10 12 14 15
22 25 25 19 20 13 13 14 15 14 9 9 9 5 4 5 9 12 16 18 18 15 11 10 11 12 12 13 13 11 10 10 9 7 6 4 2 1 3 6 9 9 9 9 10 10 12 14 16
24 23 25 24 23 20 18 20 16 11 14 10 4 5 7 7 10 11 13 12 13 16 13 10 10 10 12 12 11 11 8 7 7 6 4 4 3 5 6 8 10 8 7 8 8 10 12 13 15
22 18 22 25 30 29 24 22 20 13 15 16 14 11 13 11 10 13 12 14 15 12 11 11 10 10 10 11 9 9 10 10 9 7 6 5 5 7 9 10 10 7 7 5 7 11 10 8 13
24 19 27 28 33 35 31 29 22 18 17 18 16 16 16 15 13 12 12 12 13 13 13 10 9 10 9 9 10 10 9 10 9 10 9 7 6 8 11 11 8 5 4 5 8 10 8 7 10
18 26 26 33 35 36 39 32 23 24 20 17 21 20 20 18 15 14 16 16 16 12 11 12 12 12 11 11 11 11 12 13 12 12 9 9 8 11 14 11 7 3 4 5 6 9 10 10 12
21 31 33 37 41 46 37 34 24 27 16 19 20 17 15 20 19 15 15 16 15 14 14 12 12 12 11 12 12 13 14 12 13 13 11 10 9 12 13 7 7 4 6 7 6 8 10 11 15
27 35 41 43 47 40 34 39 15 19 15 24 22 19 13 13 17 17 13 12 13 13 13 14 13 12 13 14 15 16 17 15 15 13 12 10 11 13 12 10 8 6 8 7 8 11 7 8 12
26 34 42 38 37 34 39 29 13 18 24 26 23 22 24 24 17 13 10 7 5 6 6 8 12 14 15 17 18 20 19 17 16 13 13 12 12 14 14 12 11 8 8 9 10 10 10 9 10
33 34 30 41 40 39 40 28 28 23 25 29 25 25 28 24 20 14 17 11 4 8 12 8 9 10 13 15 17 17 20 19 18 17 16 16 15 15 15 14 13 11 9 9 8 8 8 9 12
38 32 38 43 43 38 35 28 20 19 22 26 25 26 26 23 23 21 19 17 11 10 15 14 11 10 13 13 12 13 18 21 22 22 20 20 19 18 16 18 15 14 12 10 6 7 9 7 9
40 42 43 42 42 37 34 24 21 16 19 27 25 30 30 30 26 23 19 20 14 13 20 19 13 12 10 13 12 12 13 16 19 20 23 24 24 21 20 21 18 16 14 11 8 7 9 9 10
43 45 46 47 37 34 33 26 20 14 17 26 31 33 29 28 28 26 26 22 27 19 20 20 16 15 13 15 13 11 12 13 13 16 21 24 24 24 23 23 19 18 16 14 10 8 11 9 9

GFSSGP_500_spd_042.txt.gz
Wind_Speed
5 6 10 13 9 8 6 7 11 15 15 15 15 15 16 16 13 11 15 18 16 10 9 9 11 13 12 13 15 15 15 16 16 17 17 17 17 18 16 16 15 14 13 13 12 12 10 9 8
4 5 6 8 9 9 11 13 14 16 16 14 13 10 9 11 14 13 17 16 14 10 9 8 11 12 13 13 14 15 15 16 16 16 16 17 17 17 16 15 14 13 11 10 9 8 7 6 6
4 4 5 7 7 10 13 11 12 13 13 14 12 10 10 10 12 15 21 13 12 10 9 8 9 11 13 14 15 15 16 16 15 15 16 16 16 15 14 14 13 12 10 10 9 7 5 4 4
7 4 5 8 7 7 9 10 11 13 14 15 13 9 8 11 15 16 16 13 12 8 7 7 9 12 14 14 14 15 16 15 16 17 17 17 16 15 13 12 10 10 9 9 9 7 6 7 7
5 5 7 7 5 7 11 13 13 14 14 14 11 9 10 10 11 13 15 12 10 9 7 8 10 13 14 14 14 15 15 15 15 17 17 16 15 15 13 12 11 12 13 12 12 11 10 9 10
12 9 10 7 7 8 7 10 12 13 14 12 12 13 12 11 13 12 11 9 6 8 9 10 11 12 12 13 14 15 15 15 16 17 16 15 15 15 13 13 15 15 14 14 14 13 13 15 15
14 13 9 7 7 9 7 10 10 11 14 12 13 14 15 14 10 11 9 7 7 7 10 12 12 11 11 14 15 16 15 15 16 17 16 16 17 16 16 17 18 18 18 18 15 14 14 14 16
18 11 8 4 6 6 6 9 13 12 12 15 15 13 16 14 12 9 7 6 8 9 11 12 11 12 13 15 17 17 17 18 18 18 17 17 18 20 20 21 19 18 18 16 14 14 14 14 15
18 10 7 9 4 7 8 10 15 15 13 14 14 14 14 11 11 10 6 5 10 11 12 12 12 13 15 17 18 18 16 18 18 20 19 21 20 18 19 20 17 16 15 14 14 14 14 13 13
22 19 14 9 6 8 11 13 13 15 16 15 16 16 14 12 11 11 7 4 10 13 14 14 13 15 17 19 19 19 18 19 20 21 20 19 18 18 16 16 15 15 14 13 13 13 13 11 11
23 24 18 14 13 8 8 10 12 14 18 17 17 16 16 15 13 10 7 6 11 14 16 16 15 15 18 18 19 20 19 20 18 19 18 18 16 16 15 13 13 12 12 11 11 10 9 9 9
24 24 21 17 13 9 10 11 14 16 17 18 18 19 17 17 15 14 10 10 13 15 16 16 16 16 17 17 21 19 19 19 17 17 16 16 15 14 14 12 11 10 8 8 8 7 8 7 6
24 25 22 20 16 12 9 12 14 15 17 15 15 16 16 16 14 13 12 13 16 17 17 17 17 18 17 18 19 19 19 19 17 16 15 14 14 13 12 10 8 7 5 6 5 7 6 5 6
27 28 23 17 20 16 12 9 9 14 16 15 14 15 17 15 16 17 15 16 20 19 18 19 18 18 18 18 17 18 19 18 17 16 15 14 13 12 11 10 9 5 4 5 3 5 6 6 7
29 28 27 20 23 19 13 10 9 10 10 10 12 14 15 15 16 20 21 21 23 22 19 19 18 19 18 18 18 18 18 18 17 15 13 12 12 9 9 7 4 3 4 5 4 5 4 5 6
29 31 29 22 22 17 14 8 9 8 6 6 7 13 16 16 17 18 20 21 24 22 20 20 18 18 19 18 18 17 17 17 15 13 12 11 11 9 7 4 3 5 5 5 5 5 6 7 8
30 27 32 31 23 20 17 15 15 12 9 6 9 12 17 17 17 15 16 21 23 22 20 19 18 18 17 18 17 17 16 15 14 13 12 11 10 8 5 3 5 4 5 5 5 6 7 10 12
26 28 32 35 31 25 22 20 17 16 13 11 12 15 17 18 19 20 19 21 22 22 21 19 17 17 17 16 16 16 17 16 16 15 13 11 8 5 3 4 5 2 3 2 3 6 10 10 16
23 27 26 32 33 27 27 25 19 18 19 16 15 17 18 19 18 20 23 24 21 21 18 16 14 15 16 17 17 17 17 16 16 14 12 9 7 4 1 3 4 1 2 3 4 7 9 7 11
24 22 27 31 36 29 26 31 26 24 22 21 18 18 20 18 18 19 22 24 23 21 19 16 16 16 17 15 15 16 16 14 13 12 11 8 6 4 1 3 4 2 4 4 6 7 7 7 10
31 27 31 31 34 33 28 28 32 29 26 24 19 19 21 22 20 21 23 23 26 23 20 18 18 19 18 16 15 15 16 16 16 12 11 8 5 2 2 3 5 3 5 3 6 7 7 9 11
32 30 32 40 38 34 34 27 31 29 25 24 21 18 18 20 21 22 24 26 24 23 23 21 20 18 17 16 16 16 17 16 14 12 11 10 7 4 1 3 5 4 5 3 5 6 7 9 10
27 35 36 35 42 39 37 36 35 38 34 24 21 19 20 21 25 24 24 25 27 27 23 22 22 21 19 17 17 16 14 14 14 15 14 12 9 5 2 3 5 5 6 5 6 5 7 8 10
30 38 38 38 38 48 35 34 40 39 36 28 23 21 23 23 25 26 27 27 25 22 22 21 20 20 20 21 20 17 16 15 15 15 14 12 10 9 5 3 6 6 7 4 6 4 6 7 9
34 39 43 45 44 40 33 36 31 44 37 36 28 26 24 25 27 27 27 25 21 20 19 18 18 18 17 18 18 18 19 16 17 16 15 14 13 11 7 7 9 8 7 5 5 2 3 5 5
35 35 40 43 39 39 39 29 20 26 35 37 35 32 28 30 29 29 27 26 25 23 24 23 21 21 20 20 20 21 20 18 18 17 18 17 16 14 10 11 12 11 9 7 7 3 2 3 3
32 38 27 37 38 35 30 23 26 24 32 40 37 31 29 29 30 29 27 27 26 25 22 21 21 21 20 21 23 23 23 22 21 21 21 19 18 18 15 15 16 15 11 10 8 5 3 2 4
39 30 38 39 40 33 27 23 16 14 30 36 38 31 25 30 30 31 28 27 26 24 23 24 23 22 22 23 21 22 25 26 26 24 22 21 22 21 19 19 19 18 14 13 10 8 6 4 3
44 43 40 37 35 31 25 19 12 16 27 33 33 35 29 30 31 28 25 23 23 23 24 22 21 20 20 18 16 18 20 22 24 24 23 23 24 23 24 23 23 21 17 17 14 12 10 6 4
48 44 40 43 36 31 23 17 19 19 25 37 34 31 29 30 25 24 24 25 27 28 27 24 22 23 20 20 19 16 17 16 16 18 20 22 22 25 26 28 26 27 22 21 18 15 13 9 7

GFSSGP_500_spd_045.txt.gz
Wind_Speed
8 10 11 11 8 6 5 4 10 11 11 9 12 14 10 9 7 3 16 21 12 15 16 13 13 13 12 14 15 14 14 14 15 14 15 14 16 15 14 14 14 14 14 12 11 10 10 9 8
7 8 9 12 10 7 0 6 11 11 11 11 10 8 8 9 7 9 8 18 11 13 12 11 10 12 13 13 14 13 13 14 15 14 13 14 14 13 13 12 11 11 10 8 8 7 7 5 5
7 6 8 9 6 6 4 6 9 10 11 10 7 5 6 6 8 11 12 11 7 10 8 10 10 11 13 13 12 12 13 14 14 14 14 13 14 12 12 11 9 9 8 7 6 6 6 6 6
8 6 5 8 8 6 9 7 8 10 9 10 9 6 4 5 10 13 8 9 7 7 8 8 9 11 12 11 12 12 13 14 14 14 14 13 12 12 12 11 10 9 8 7 7 8 9 10 12
6 6 3 9 1 10 13 10 9 9 10 11 9 6 7 8 14 12 12 9 5 5 7 7 10 11 10 10 12 13 14 14 15 15 14 12 12 11 11 11 11 11 11 11 12 11 11 11 15
11 13 4 14 6 9 10 10 9 11 11 12 10 9 8 8 10 12 10 7 5 6 7 10 10 11 10 10 12 14 14 14 15 14 13 12 11 12 13 13 12 12 12 13 12 13 14 16 16
13 12 9 1 4 8 7 6 10 10 11 12 10 11 11 10 9 10 8 8 7 8 10 11 11 10 10 10 13 14 14 14 15 14 14 14 13 15 17 17 16 17 16 13 12 12 13 14 14
12 11 10 9 9 8 5 9 10 11 12 13 12 12 13 13 12 9 8 8 8 9 11 11 11 11 11 12 15 15 14 15 15 14 15 15 16 18 19 19 18 17 15 12 11 11 12 14 14
8 10 4 11 17 11 5 7 11 12 12 14 15 12 13 13 13 10 8 7 10 10 11 11 12 13 14 16 16 17 16 16 16 17 18 18 18 16 17 16 14 13 13 12 11 11 13 13 14
12 9 19 11 3 15 8 8 10 14 15 15 16 14 15 13 12 12 8 7 12 13 13 12 13 15 16 18 17 17 17 18 19 19 19 20 15 15 13 13 12 11 11 11 10 10 11 12 11
16 13 14 16 17 1 15 8 12 15 17 18 18 16 16 15 13 12 9 8 14 15 16 15 14 16 18 18 18 17 20 19 19 18 17 15 15 12 11 11 11 9 8 8 9 9 10 9 11
22 21 18 15 12 11 8 8 9 13 17 20 19 19 17 16 16 15 12 11 14 16 16 17 16 19 17 18 18 18 19 19 17 15 15 15 13 12 11 9 8 6 6 7 8 9 10 10 10
24 24 25 21 13 10 16 17 6 12 15 19 19 21 19 16 17 16 14 13 17 18 17 18 17 18 16 18 17 17 17 18 15 14 13 13 11 9 8 5 5 5 5 5 7 7 8 8 8
24 26 23 20 15 15 11 10 9 11 16 17 19 20 21 21 20 18 17 16 19 19 18 19 19 18 17 18 16 15 15 15 13 12 11 11 9 8 5 4 3 4 4 6 6 6 7 7 7
32 28 27 25 19 17 15 13 12 13 13 14 15 17 19 21 19 18 21 20 22 20 19 19 19 19 17 16 16 16 15 14 12 11 10 10 9 7 5 3 2 3 3 3 3 5 7 8 10
34 31 29 26 21 21 14 10 16 12 12 12 14 12 17 18 20 20 21 21 24 22 20 19 19 19 18 17 17 17 16 14 12 11 9 8 7 6 5 2 3 3 2 3 2 4 7 9 10
35 32 29 25 22 20 17 19 30 13 14 12 12 12 16 20 18 18 20 20 23 22 20 20 20 20 19 18 17 16 16 14 13 11 10 9 7 5 2 2 2 2 1 3 5 7 8 11 15
33 33 25 27 24 28 20 13 7 17 17 15 13 13 16 20 19 20 21 20 24 22 21 20 21 20 20 19 18 17 16 15 13 11 11 10 8 6 3 2 1 1 2 5 8 9 8 9 13
27 24 27 24 23 28 23 20 18 19 18 15 18 14 15 20 20 21 20 23 24 22 20 18 20 21 20 20 20 19 17 14 12 11 10 9 8 6 3 0 2 2 2 6 7 8 7 8 10
32 29 26 27 26 30 27 25 23 23 23 23 19 16 17 20 19 21 22 24 24 22 20 19 19 21 22 22 20 18 16 15 13 12 11 9 8 5 2 2 3 4 2 4 6 8 8 9 10
35 32 29 26 27 31 30 29 29 25 26 27 23 20 20 19 20 20 22 25 26 24 22 21 21 22 23 20 18 17 16 16 16 14 11 9 8 5 4 2 3 2 4 3 6 8 8 8 9
37 32 31 29 30 30 36 30 30 28 28 30 26 24 20 19 19 20 22 23 25 26 25 24 24 23 22 19 18 19 20 18 15 10 10 11 9 6 3 3 5 4 3 3 5 6 5 6 7
32 36 38 37 32 32 30 34 25 26 28 28 26 21 21 21 20 20 23 26 28 27 25 24 24 23 22 22 21 20 18 17 15 14 14 13 9 6 5 5 6 4 3 2 3 3 2 2 5
30 38 40 41 40 45 40 34 30 29 25 24 29 21 22 23 21 20 24 28 28 26 24 22 22 22 23 24 22 21 20 19 18 18 17 15 12 10 9 7 8 5 4 2 3 3 1 0 2
34 40 45 46 47 47 42 41 36 28 27 30 31 27 23 21 23 24 24 25 26 23 19 19 21 22 22 21 20 20 19 18 18 17 15 15 14 13 11 9 9 9 7 4 4 4 4 2 2
38 38 41 43 44 35 34 39 35 31 29 34 28 30 29 25 25 26 25 26 26 25 24 22 21 21 21 21 19 19 18 16 16 15 16 16 15 14 13 12 11 11 10 7 5 6 6 4 2
39 41 30 33 23 26 25 24 24 30 34 36 37 36 33 29 26 26 27 27 26 25 24 24 25 24 23 21 20 19 17 16 18 19 19 18 16 15 15 15 14 12 13 11 10 8 10 7 4
45 33 40 39 31 26 27 24 24 18 24 34 36 40 36 33 24 28 28 29 29 27 26 24 23 21 20 21 20 18 17 19 21 23 22 22 21 19 16 16 16 17 16 14 13 11 12 9 6
46 47 40 36 37 27 21 16 21 25 16 31 34 38 38 32 24 27 28 29 30 29 27 24 23 23 21 20 20 19 18 18 19 20 22 24 25 22 19 18 18 19 19 17 15 15 14 12 9
47 47 42 40 36 33 18 15 29 22 22 31 35 38 38 33 27 24 27 30 29 28 27 26 25 24 21 19 19 17 16 13 11 11 15 19 21 22 21 20 21 21 22 20 18 18 16 17 14

GFSSGP_500_spd_048.txt.gz
Wind_Speed
11 11 10 9 5 7 6 2 11 6 5 4 8 5 5 5 1 3 18 18 13 15 15 14 13 12 13 13 13 12 12 12 12 12 12 14 14 14 14 14 14 14 13 11 10 10 9 9 8
11 11 9 7 5 8 7 7 7 6 9 5 5 5 2 1 2 17 22 10 9 11 13 13 12 12 14 13 12 11 11 11 11 11 12 13 12 13 11 11 11 10 9 8 8 9 9 9 7
7 9 9 5 6 16 2 1 5 7 8 5 4 2 1 2 2 7 8 9 7 9 11 12 12 12 13 12 12 10 10 11 10 10 12 12 12 10 10 9 8 8 8 7 8 10 11 11 7
8 7 5 2 9 6 6 2 4 6 7 5 4 1 1 1 3 8 9 5 5 7 8 10 12 12 12 12 12 10 10 11 11 11 11 12 11 10 9 9 8 8 8 9 11 12 12 14 14
7 6 5 7 8 17 14 1 5 4 3 4 3 4 2 0 7 10 7 6 4 4 5 8 12 12 12 11 11 10 11 11 12 12 11 11 11 10 9 9 9 10 12 13 13 13 14 16 18
8 2 3 24 15 11 12 10 8 8 7 7 7 5 4 5 7 7 7 4 3 5 5 9 11 11 11 11 11 11 11 12 13 13 12 12 12 12 10 11 11 13 14 13 14 14 14 16 19
9 6 8 14 12 6 10 7 6 9 11 10 11 7 7 7 8 8 6 6 6 5 7 9 10 11 10 11 12 12 12 12 12 13 13 16 18 15 14 16 16 14 13 12 13 14 15 16 17
11 6 7 17 15 13 8 7 13 12 10 12 10 10 8 8 10 9 6 5 8 6 8 10 9 10 10 12 12 13 13 13 14 12 14 19 21 21 17 15 14 13 13 13 13 14 15 15 17
12 8 7 15 16 8 10 10 9 7 11 12 12 12 9 8 10 9 6 5 7 8 9 8 9 11 12 13 13 13 13 14 15 13 19 21 19 19 16 13 13 13 14 13 13 14 13 14 15
12 11 8 11 7 10 3 10 11 10 10 12 11 12 10 9 10 11 8 5 9 11 11 10 10 12 14 13 15 15 15 16 15 16 16 17 19 16 15 14 12 12 12 13 13 12 11 12 12
15 9 7 1 1 4 18 5 14 10 12 11 13 13 12 11 11 10 8 5 8 11 13 11 11 14 15 15 16 15 16 16 15 15 12 12 12 13 10 14 13 10 11 10 10 11 10 11 11
19 11 13 11 6 6 12 17 15 9 7 10 13 14 15 13 13 12 11 9 9 12 13 13 13 16 16 16 16 17 18 16 10 11 12 13 7 9 2 11 12 10 9 11 10 12 10 11 12
20 19 13 15 6 13 15 13 6 9 9 5 8 13 16 15 14 15 14 10 12 15 14 14 16 16 17 17 17 18 17 15 12 8 9 11 5 6 6 6 12 9 6 7 10 10 11 11 13
21 18 20 18 7 16 11 16 10 10 10 8 5 11 15 18 18 16 14 12 14 16 16 16 18 15 16 17 18 18 16 14 12 10 9 8 5 7 5 8 7 7 5 7 9 11 11 12 10
25 22 26 24 22 20 9 22 10 16 11 10 7 8 13 16 18 20 17 15 16 18 17 17 16 16 17 16 17 16 16 13 12 8 6 6 4 4 6 4 4 3 5 7 8 10 10 11 10
30 29 26 23 22 20 15 11 19 24 12 8 8 9 11 14 17 17 17 17 18 20 18 18 16 17 17 17 17 16 15 13 12 9 7 6 4 3 4 4 3 4 5 6 8 9 9 12 14
34 32 30 20 23 20 18 22 19 15 24 10 10 10 10 12 15 15 15 17 19 21 20 18 18 17 17 18 18 17 15 12 10 8 7 5 4 3 3 3 2 4 6 7 8 9 7 9 12
32 34 28 25 23 22 19 19 21 26 20 11 12 9 11 12 14 15 17 20 21 21 21 20 20 19 18 18 18 17 15 13 10 7 6 5 3 3 3 1 4 4 6 7 8 8 3 6 10
28 28 28 23 25 26 19 24 24 25 27 9 23 16 9 14 13 15 17 20 23 22 20 20 20 20 18 18 17 16 15 12 9 8 7 6 5 3 1 2 3 5 7 8 8 8 7 11 12
32 27 24 22 20 27 25 29 29 24 17 21 16 11 12 14 10 15 17 19 23 23 20 19 20 20 20 19 18 16 13 12 10 10 9 7 4 3 3 3 5 4 5 5 7 8 8 8 10
36 34 28 23 23 30 24 32 27 25 25 25 28 18 14 11 11 15 17 19 23 22 21 20 21 22 22 21 18 15 14 13 14 12 9 7 6 5 3 1 3 3 5 3 5 6 8 9 9
40 33 33 29 25 29 28 28 27 31 24 25 21 29 18 13 12 15 16 17 21 23 23 23 23 25 24 21 19 18 18 16 12 9 9 10 9 5 2 2 3 3 3 2 3 4 6 6 5
36 35 37 37 33 30 33 33 31 30 26 21 31 30 25 11 14 16 16 19 23 24 23 22 24 24 24 23 22 21 17 15 12 11 12 10 7 5 4 4 4 5 3 3 3 2 3 2 3
28 34 34 39 32 41 38 31 29 33 25 20 24 18 20 14 16 16 18 21 22 24 23 21 21 23 24 24 22 19 17 15 14 14 13 10 8 6 6 6 5 5 5 5 5 3 2 1 2
35 38 39 41 49 47 38 38 34 20 26 28 15 22 21 26 15 19 18 19 22 22 21 19 20 21 23 23 21 19 17 15 14 13 11 10 8 8 9 7 7 8 8 7 6 6 3 3 2
40 38 45 48 45 39 35 37 34 30 25 24 18 26 24 30 26 16 19 19 21 23 21 20 19 21 22 21 20 18 15 14 12 11 11 10 10 10 11 9 9 8 10 10 8 8 7 5 5
42 44 32 33 25 26 29 25 25 33 39 34 30 29 31 34 30 15 19 19 21 21 21 21 21 20 20 21 21 17 15 13 14 15 14 14 14 13 12 13 12 11 10 12 10 9 10 8 8
45 34 40 38 34 28 19 24 17 22 34 42 39 30 30 31 32 17 18 21 20 21 23 23 23 21 21 20 17 15 13 12 13 14 15 17 18 18 13 15 15 14 12 11 11 11 12 10 9
48 44 41 35 35 27 18 19 18 24 23 23 34 41 40 33 34 24 16 21 21 23 23 24 23 21 18 17 17 15 15 14 13 14 15 17 18 17 15 15 15 16 15 13 13 11 12 11 11
52 48 44 43 40 35 22 18 26 20 26 24 28 35 32 34 34 32 18 18 25 24 23 22 22 21 20 20 19 17 15 12 9 9 9 8 8 10 12 12 16 17 19 17 15 13 11 13 12